User: anonymous
Location: Unspecified
(0.0000°N, 0.0000°E)
Time: 11:05:08
(UTC+00:00)
Language:

N. Korean satellite - Orbit

View from above orbital plane
View from above orbital plane
View from above satellite
View from above satellite

Ground track
Ground track

The orbit data is extracted from the following two-line orbital elements,

1 39026U 12072A   14237.75151079  .00004943  00000-0  26078-3 0  1318
2 39026 097.3214 274.8182 0052389 185.0158 175.0557 15.14798675 93909
Epoch (UTC): 25 August 2014 18:02:10
Eccentricity: 0.0052389
inclination: 97.3214°
perigee height: 485 km
apogee height: 558 km
right ascension of ascending node: 274.8182°
argument of perigee: 185.0158°
revolutions per day: 15.14798675
mean anomaly at epoch: 175.0557°
orbit number at epoch: 9390

The dashed part of the orbit path shows where the satellite is in the earth's shadow,  

DLR